N9LYA-3 Weather Reports


time (UTC)temp
C
wind
direction
speed
KPH
gust
KPH
rain 1hr
cm
rain 24hr
cm
rain mn
cm
humidity
%
barometer
mb
20260504040245 15 173 0.0 12.9 0.00 0.00 0.00 76 1014.3
20260504035945 15 192 0.0 4.8 0.00 0.00 0.00 76 1014.3
20260504034745 15 159 0.0 8.0 0.00 0.00 0.00 76 1014.3
20260504033545 13 159 0.0 4.8 0.00 0.00 0.00 76 1014.3
20260504032945 13 194 0.0 6.4 0.00 0.00 0.00 76 1014.3
20260504032645 13 194 0.0 6.4 0.00 0.00 0.00 76 1014.3
20260504032045 13 180 0.0 3.2 0.00 0.00 0.00 76 1014.3
20260504031445 15 153 3.2 8.0 0.00 0.00 0.00 76 1014.3
20260504030545 15 183 0.0 6.4 0.00 0.00 0.00 76 1014.3
20260504025945 15 202 0.0 11.3 0.00 0.00 0.00 76 1014.3
20260504024445 15 177 3.2 8.0 0.00 0.00 0.00 76 1014.3
20260504023846 15 174 3.2 9.7 0.00 0.00 0.00 76 1014.3
20260504023545 15 174 3.2 9.7 0.00 0.00 0.00 76 1014.3
20260504021743 15 189 0.0 4.8 0.00 0.00 0.00 76 1015.3
20260504021444 15 189 3.2 6.4 0.00 0.00 0.00 76 1015.3
20260504021145 15 189 3.2 6.4 0.00 0.00 0.00 76 1015.3
20260504020545 15 213 0.0 4.8 0.00 0.00 0.00 76 1015.3
20260504020243 15 152 3.2 6.4 0.00 0.00 0.00 76 1015.3
20260504015045 15 201 0.0 6.4 0.00 0.00 0.00 76 1015.2
20260504014745 15 193 0.0 3.2 0.00 0.00 0.00 76 1015.2
20260504013245 15 159 0.0 4.8 0.00 0.00 0.00 76 1015.2
20260504012945 15 183 0.0 3.2 0.00 0.00 0.00 76 1015.2
20260504012646 15 183 0.0 3.2 0.00 0.00 0.00 76 1015.2
20260504012045 15 184 0.0 6.4 0.00 0.00 0.00 76 1015.2
20260504011445 15 161 0.0 0.0 0.00 0.00 0.00 76 1015.2
20260504005344 15 187 0.0 3.2 0.00 0.00 0.00 76 1015.2
20260504002643 16 136 0.0 4.8 0.00 0.00 0.00 74 1015.1
20260504002044 16 211 0.0 0.0 0.00 0.00 0.00 74 1015.1
20260504001444 16 231 0.0 4.8 0.00 0.00 0.00 74 1015.1
20260504000244 16 244 4.8 8.0 0.00 0.00 0.00 74 1015.1
20260503235943 16 244 0.0 6.4 0.00 0.00 0.00 74 1015.1
20260503235043 17 307 0.0 12.9 0.00 0.00 0.00 74 1015.1
20260503232943 17 175 8.0 22.5 0.00 0.00 0.00 74 1014.0
20260503232043 17 109 6.4 19.3 0.00 0.00 0.00 74 1014.0
20260503231743 17 165 6.4 11.3 0.00 0.00 0.00 74 1014.0
20260503231443 17 237 6.4 12.9 0.00 0.00 0.00 74 1015.0
20260503231144 17 237 6.4 12.9 0.00 0.00 0.00 74 1015.0
20260503230846 17 168 8.0 16.1 0.00 0.00 0.00 74 1015.0
20260503230543 17 168 8.0 16.1 0.00 0.00 0.00 74 1015.0
20260503230244 17 120 6.4 19.3 0.00 0.00 0.00 74 1015.0
20260503225943 17 236 3.2 14.5 0.00 0.00 0.00 71 1015.0
20260503225043 17 126 9.7 9.7 0.00 0.00 0.00 71 1015.0
20260503224743 18 193 11.3 17.7 0.00 0.00 0.00 71 1015.0
20260503224444 18 239 4.8 11.3 0.00 0.00 0.00 71 1015.0
20260503223545 18 264 4.8 12.9 0.00 0.00 0.00 71 1015.0
20260503222943 18 180 11.3 22.5 0.00 0.00 0.00 71 1015.0
20260503222043 18 216 4.8 12.9 0.00 0.00 0.00 71 1015.0
20260503221744 18 239 6.4 12.9 0.00 0.00 0.00 71 1015.0
20260503221443 18 168 6.4 14.5 0.00 0.00 0.00 71 1015.0
20260503220543 18 201 0.0 14.5 0.00 0.00 0.00 71 1015.0
20260503215943 18 157 3.2 11.3 0.00 0.00 0.00 71 1016.0
20260503214743 18 192 4.8 12.9 0.00 0.00 0.00 71 1016.0
20260503214443 18 175 8.0 12.9 0.00 0.00 0.00 71 1016.0
20260503213843 18 188 4.8 11.3 0.00 0.00 0.00 71 1016.0
20260503213543 18 188 4.8 11.3 0.00 0.00 0.00 71 1016.0
20260503212943 18 150 6.4 22.5 0.00 0.00 0.00 71 1016.0
20260503212343 18 152 6.4 11.3 0.00 0.00 0.00 71 1016.0
20260503212044 18 152 6.4 11.3 0.00 0.00 0.00 71 1016.0
20260503211443 18 305 11.3 12.9 0.00 0.00 0.00 71 1017.0
20260503210845 18 232 0.0 14.5 0.00 0.00 0.00 71 1017.0
20260503210543 18 232 0.0 14.5 0.00 0.00 0.00 71 1017.0
20260503210245 18 311 8.0 12.9 0.00 0.00 0.00 71 1017.0
20260503205943 18 240 9.7 16.1 0.00 0.00 0.00 71 1017.0
20260503205345 18 326 9.7 22.5 0.00 0.00 0.00 71 1017.0
20260503205043 18 326 9.7 22.5 0.00 0.00 0.00 71 1017.0
20260503204745 18 274 8.0 24.1 0.00 0.00 0.00 71 1017.0
20260503203843 18 145 4.8 17.7 0.00 0.00 0.00 71 1017.0
20260503203543 18 145 4.8 17.7 0.00 0.00 0.00 71 1017.0
20260503203243 18 213 8.0 20.9 0.00 0.00 0.00 71 1017.0
20260503202345 18 170 11.3 22.5 0.00 0.00 0.00 71 1017.0
20260503202043 18 170 11.3 22.5 0.00 0.00 0.00 71 1017.0
20260503201743 18 185 4.8 24.1 0.00 0.00 0.00 71 1017.0
20260503201443 17 222 6.4 12.9 0.00 0.00 0.00 71 1018.1
20260503200844 18 160 11.3 25.7 0.00 0.00 0.00 71 1018.0
20260503200543 18 160 11.3 25.7 0.00 0.00 0.00 71 1018.0
20260503200245 18 192 8.0 12.9 0.00 0.00 0.00 71 1018.0
20260503195343 18 183 9.7 16.1 0.00 0.00 0.00 71 1018.0
20260503195043 18 183 9.7 16.1 0.00 0.00 0.00 71 1018.0
20260503194743 18 204 8.0 12.9 0.00 0.00 0.00 71 1018.0
20260503193543 17 150 8.0 19.3 0.00 0.00 0.00 71 1018.0
20260503193245 17 254 8.0 12.9 0.00 0.00 0.00 71 1018.0
20260503192943 17 219 6.4 16.1 0.00 0.00 0.00 71 1018.1
20260503192343 17 172 4.8 16.1 0.00 0.00 0.00 74 1018.1
20260503192044 17 172 4.8 16.1 0.00 0.00 0.00 74 1018.1
20260503191743 17 165 0.0 19.3 0.00 0.00 0.00 71 1018.1
20260503190843 17 244 11.3 16.1 0.00 0.00 0.00 71 1019.1
20260503190545 17 244 11.3 16.1 0.00 0.00 0.00 71 1019.1
20260503190243 17 247 4.8 12.9 0.00 0.00 0.00 71 1019.1
20260503185043 17 222 8.0 12.9 0.00 0.00 0.00 71 1019.1
20260503184743 18 225 6.4 16.1 0.00 0.00 0.00 71 1019.0
20260503184143 18 173 0.0 11.3 0.00 0.00 0.00 71 1019.0
20260503183846 17 139 3.2 12.9 0.00 0.00 0.00 71 1019.1
20260503183544 17 139 3.2 12.9 0.00 0.00 0.00 71 1019.1
20260503183245 17 239 11.3 22.5 0.00 0.00 0.00 71 1019.1
20260503182945 17 268 8.0 17.7 0.00 0.00 0.00 74 1020.1
20260503182643 17 268 8.0 17.7 0.00 0.00 0.00 74 1020.1
20260503182345 17 163 6.4 11.3 0.00 0.00 0.00 74 1020.2
20260503181443 17 151 11.3 20.9 0.00 0.00 0.00 74 1020.2
20260503180543 16 147 6.4 12.9 0.00 0.00 0.00 74 1020.2
20260503180243 16 243 8.0 16.1 0.00 0.00 0.00 74 1020.2
20260503175943 16 156 8.0 12.9 0.00 0.00 0.00 74 1020.2
20260503175345 16 213 8.0 16.1 0.00 0.00 0.00 74 1020.2
20260503175043 16 213 8.0 16.1 0.00 0.00 0.00 74 1020.2
20260503173843 16 193 8.0 16.1 0.00 0.00 0.00 74 1020.2
20260503173543 16 193 8.0 16.1 0.00 0.00 0.00 74 1020.2
20260503173245 16 181 8.0 16.1 0.00 0.00 0.00 74 1020.2
20260503172945 16 188 9.7 16.1 0.00 0.00 0.00 74 1021.2
20260503172644 16 188 9.7 16.1 0.00 0.00 0.00 74 1021.2
20260503172345 16 211 0.0 11.3 0.00 0.00 0.00 74 1021.2
20260503172044 16 211 0.0 11.3 0.00 0.00 0.00 74 1021.2
20260503171743 16 132 3.2 16.1 0.00 0.00 0.00 74 1021.2
20260503171443 16 234 0.0 12.9 0.00 0.00 0.00 74 1021.3
20260503170844 16 219 8.0 11.3 0.00 0.00 0.00 74 1021.3
20260503170543 16 219 8.0 11.3 0.00 0.00 0.00 74 1021.3
20260503170245 16 181 8.0 12.9 0.00 0.00 0.00 74 1021.3
20260503150543 15 167 8.0 14.5 0.00 0.00 0.00 76 1022.5
20260503150243 15 160 8.0 12.9 0.00 0.00 0.00 76 1022.5
20260503140243 11 223 4.8 9.7 0.00 0.00 0.00 78 1022.7
20260503130843 8 184 6.4 8.0 0.00 0.00 0.00 80 1023.0
20260503130543 8 184 6.4 8.0 0.00 0.00 0.00 80 1023.0
20260503110543 0 2 0.0 0.0 0.00 0.00 0.00 99 1023.8
20260503110243 0 2 0.0 0.0 0.00 0.00 0.00 99 1023.8
20260503100243 0 2 0.0 0.0 0.00 0.00 0.00 99 1022.7
20260503090243 0 2 0.0 0.0 0.00 0.00 0.00 99 1022.7
20260503081443 1 2 0.0 0.0 0.00 0.00 0.00 99 1022.7
20260503081147 1 2 0.0 0.0 0.00 0.00 0.00 99 1022.7
20260503080843 1 2 0.0 0.0 0.00 0.00 0.00 99 1022.6
20260503080545 1 2 0.0 0.0 0.00 0.00 0.00 99 1022.6
20260503080243 1 2 0.0 0.0 0.00 0.00 0.00 99 1022.6
20260503072943 1 2 0.0 0.0 0.00 0.00 0.00 99 1022.6
20260503072343 1 2 0.0 0.0 0.00 0.00 0.00 99 1022.6
20260503072044 1 2 0.0 0.0 0.00 0.00 0.00 99 1022.6
20260503071743 1 2 0.0 0.0 0.00 0.00 0.00 99 1022.6
20260503071443 1 2 0.0 0.0 0.00 0.00 0.00 99 1022.6
20260503070843 1 2 0.0 0.0 0.00 0.00 0.00 99 1022.6
20260503070543 1 2 0.0 0.0 0.00 0.00 0.00 99 1022.6
20260503070243 1 2 0.0 0.0 0.00 0.00 0.00 99 1022.6
20260503060243 1 2 0.0 0.0 0.00 0.00 0.00 97 1023.7
20260503055043 1 2 0.0 0.0 0.00 0.00 0.00 95 1022.6
20260503054743 1 2 0.0 0.0 0.00 0.00 0.00 95 1022.6
20260503054443 1 2 0.0 0.0 0.00 0.00 0.00 95 1023.6
20260503053843 1 2 0.0 0.0 0.00 0.00 0.00 95 1023.6
20260503053543 1 2 0.0 0.0 0.00 0.00 0.00 95 1023.6
20260503053243 1 1 0.0 0.0 0.00 0.00 0.00 95 1023.6
20260503052343 1 1 0.0 0.0 0.00 0.00 0.00 93 1023.6
20260503051743 1 1 0.0 0.0 0.00 0.00 0.00 93 1023.6
20260503050843 2 1 0.0 0.0 0.00 0.00 0.00 93 1023.6
20260503050543 2 1 0.0 0.0 0.00 0.00 0.00 93 1023.6
20260503050243 2 2 0.0 0.0 0.00 0.00 0.00 93 1023.6
20260503045943 2 1 0.0 0.0 0.00 0.00 0.00 93 1023.6
20260503045343 2 1 0.0 0.0 0.00 0.00 0.00 93 1023.6
20260503045043 2 1 0.0 0.0 0.00 0.00 0.00 93 1023.6
20260503044743 2 1 0.0 0.0 0.00 0.00 0.00 93 1023.6
20260503043843 2 1 0.0 0.0 0.00 0.00 0.00 91 1023.6
20260503043243 2 1 0.0 0.0 0.00 0.00 0.00 91 1023.6
20260503042943 2 2 0.0 0.0 0.00 0.00 0.00 91 1022.6
20260503042343 2 1 0.0 0.0 0.00 0.00 0.00 91 1022.6
20260503041743 2 1 0.0 0.0 0.00 0.00 0.00 88 1022.5
20260503040843 2 2 0.0 0.0 0.00 0.00 0.00 88 1022.5
20260503040543 2 2 0.0 0.0 0.00 0.00 0.00 88 1022.5